Regional Weather Roundup
Issued by NWS Midland/Odessa, TX

Home | Current Version | Previous Version | Text Only | Print | Product List | Glossary On
Versions: 1 2 3 4 5 6 7 8 9 10 11 12 13 14 15 16 17 18 19 20 21 22 23 24 25 26 27 28 29 30 31 32 33 34 35 36 37 38 39 40 41 42 43 44 45 46 47 48 49 50
000
ASUS44 KMAF 280810
RWRMAF
MIDLAND AREA WEATHER ROUNDUP
NATIONAL WEATHER SERVICE MIDLAND TX
300 AM CDT FRI AUG 28 2015

...IN SOUTHWEST TEXAS AND SOUTHEAST NEW MEXICO...

CITY           SKY/WX    TMP DP  RH WIND       PRES   REMARKS
ALPINE         MOCLDY    74  53  47 S10       30.19F
ANDREWS        FAIR      78  55  44 S14       30.04F
ARTESIA        PTCLDY    73  54  49 SW7       30.05F
BIG SPRING     CLEAR     75  54  47 S13       30.04F
CARLSBAD       CLEAR     77  51  40 S9        30.02F
DRYDEN           N/A     78  57  48 VRB3      30.01F
FORT STOCKTON  CLEAR     77  55  46 S13       30.03F
GUAD PASS      PTCLDY    74  46  36 SE7       30.20S
HOBBS            N/A     73  50  43 S10       30.07F
MARFA          MOCLDY    63  54  72 CALM      30.20S
MIDLAND AIRPK  CLEAR     81  55  40 S10       30.03S
MIDLAND INTL   CLEAR     78  55  44 S9        30.03F
ODESSA         PTCLDY    79  55  43 S14       30.04F
PECOS          CLEAR     77  54  44 SE6       30.00S
PRESIDIO       NOT AVBL
SEMINOLE       CLEAR     75  53  45 SW9       30.06S
SNYDER         CLEAR     76  59  55 S10       30.02S
WINK           CLEAR     76  53  44 SE7       30.01F
$$
...OTHER STATIONS IN TEXAS...

CITY           SKY/WX    TMP DP  RH WIND       PRES   REMARKS
ABILENE        CLEAR     77  60  55 S10       29.99F
AMARILLO       CLOUDY    70  59  68 N12       30.06R
AUSTIN         CLEAR     67  62  84 SW3       29.99F
BROWNSVILLE    MOCLDY    75  70  84 CALM      29.97F
CORPUS CHRISTI MOCLDY    72  65  78 S3        29.97F
DALLAS FTW     PTCLDY    74  62  66 SE5       29.99S
DEL RIO        CLEAR     78  57  48 SE6       29.99R
EL PASO        PTCLDY    77  56  48 E3        30.06S
HOUSTON INT    PTCLDY    72  67  84 CALM      29.97F
LUBBOCK        PTCLDY    74  52  46 S8        30.03S
SAN ANGELO     CLEAR     78  60  53 S8        30.01S
SAN ANTONIO    PTCLDY    77  63  61 SW5       30.01F
WACO           CLEAR     73  61  65 SE5       30.00S
WICHITA FALLS  NOT AVBL
$$
...OTHER LOCATIONS IN NEW MEXICO...

CITY           SKY/WX    TMP DP  RH WIND       PRES   REMARKS
ALAMAGORDO     PTCLDY    73  54  49 E8        30.09F
ALBUQUERQUE    MOCLDY    69  54  58 SE8       30.21R
CANNON AFB     MOCLDY    70  58  66 SW7       30.09F
CLOVIS         MOCLDY    70  57  64 SW9       30.10S
HOLLOMAN AFB   CLEAR     73  58  59 E7        30.07F
ROSWELL        PTCLDY    70  55  59 SW5       30.05F
RUIDOSO        PTCLDY    59  50  72 MISG      30.30F
SANTA FE       CLEAR     62  50  64 N3        30.25S
TRUTH OR CONSE PTCLDY    73  56  54 N5        30.15F
TUCUMCARI      CLOUDY    74  55  51 NW9G24    30.05R
$$



USA.gov is the U.S. government's official web portal to all federal, state and local government web resources and services.